Airfield :
LOGIN :

Register | Disclaimer

   EN    FR    IT 

 










Legend :    VFR   Marginal VFR   IFR   Intensive IFR   Very Intensive IFR
Visi :
Ceiling :
>= 8 km
>= 3000ft
5 to 8 km
1000 to 3000 ft
1500m to 5 km
500 to 1000 ft
800 to 1500m
200 to 500 ft
< 800m
< 200 ft
Symbols :   Thunderstorms  Fog  Heavy snow  Heavy precipitations  Wind > 20 kt
SIGMETs :     Misc.  Thunderstorms  Icing  Turbulence  Mountain Waves  Volcanic Ashes







- Airport Elevation : 1959 ft
- IATA code : HOQ


EDQM - Hof Plauen

CURRENT METAR :
  • 251420Z VRB02KT 9999 FEW016 BKN059 17/13 Q1021

EXPIRED METARs :
  • 251350Z VRB02KT 9999 VCSH FEW016 BKN061 17/13 Q1021
  • 251320Z VRB02KT 9999 FEW016 BKN059 17/13 Q1021
  • 251250Z 06003KT 350V090 9999 FEW014 BKN055 17/14 Q1021
  • 251220Z 06003KT 020V080 9999 FEW014 SCT055 16/13 Q1021
  • 251150Z VRB02KT 9999 SCT009 SCT041 15/14 Q1021
  • 251120Z 09005KT 9999 -RA SCT008 BKN050 15/13 Q1021

Expired Forecast.
No reported NOTAMs for that airfield.



MET'MAP, your aeronautical weather chart ! - Copyright ORBIFLY December 2007 - Disclaimer

ORBIFLY MET'MAP TEAM :

Programming & Development : Alexandra Zaïnal
Concept & Development : Baudouin d'Aumeries
Co-Development & Prog : Marc-Olivier Méhu
Technical & hardware support : Manuel Goepfert

Contact : metmap@orbifly.com




SOURCES & CREDITS :

   NOAA